This demonstration page uses our WeatherBlox Daily Observations layout. Learn more.

Left ArrowRight Arrow

Hourly Observations for January 17, 2022

Temp ( °F °C ) Dew Point ( °F °C ) Humidity (%) Winds ( mph kmh ) Pressure ( in mb ) Visibility ( mi km ) Precip ( " mm )
12:53 am 00:53 Clear 34 1.1 26 -3.3 73 73 Calm 30.13 1020 10 16 0.00 0.00
1:53 am 01:53 Clear 33 0.6 26 -3.3 75 75 Calm 30.12 1020 10 16 0.00 0.00
2:53 am 02:53 Clear 35 1.7 26 -3.3 70 70 Calm 30.13 1020 10 16 0.00 0.00
3:53 am 03:53 Clear 33 0.6 26 -3.3 75 75 Calm 30.13 1020 10 16 0.00 0.00
4:53 am 04:53 Clear 30 -1.1 25 -3.9 82 82 Calm 30.13 1020 10 16 0.00 0.00
5:53 am 05:53 Clear 31 -0.6 25 -3.9 79 79 Calm 30.14 1021 10 16 0.00 0.00
6:53 am 06:53 Mostly Clear 33 0.6 27 -2.8 78 78 Calm 30.16 1021 10 16 0.00 0.00
7:53 am 07:53 Sunny 33 0.6 27 -2.8 78 78 Calm 30.17 1022 10 16 0.00 0.00
8:53 am 08:53 Sunny 39 3.9 29 -1.7 67 67 Calm 30.19 1022 10 16 0.00 0.00
9:53 am 09:53 Sunny 44 6.7 28 -2.2 53 53 Calm 30.21 1023 10 16 0.00 0.00
10:53 am 10:53 Sunny 50 10 29 -1.7 44 44 VRB 3 6 30.20 1023 10 16 0.00 0.00
11:53 am 11:53 Sunny 56 13.3 28 -2.2 34 34 S 6 9 30.18 1022 10 16 0.00 0.00
12:53 pm 12:53 Sunny 57 13.9 27 -2.8 32 32 Calm 30.13 1020 10 16 0.00 0.00
1:53 pm 13:53 Sunny 60 15.6 26 -3.3 27 27 S 7 11 30.10 1019 10 16 0.00 0.00
2:53 pm 14:53 Sunny 62 16.7 27 -2.8 26 26 SE 8 13 30.07 1018 10 16 0.00 0.00
3:53 pm 15:53 Sunny 63 17.2 26 -3.3 25 25 S 6 9 30.05 1018 10 16 0.00 0.00
4:53 pm 16:53 Mostly Sunny 62 16.7 26 -3.3 25 25 S 9 15 30.03 1017 10 16 0.00 0.00
5:53 pm 17:53 Mostly Clear 59 15 26 -3.3 28 28 SSE 7 11 30.02 1017 10 16 0.00 0.00
6:53 pm 18:53 Mostly Clear 56 13.3 26 -3.3 32 32 SSE 6 9 30.03 1017 10 16 0.00 0.00
7:53 pm 19:53 Partly Cloudy 55 12.8 27 -2.8 34 34 SE 8 13 30.04 1017 10 16 0.00 0.00
8:53 pm 20:53 Partly Cloudy 52 11.1 27 -2.8 38 38 SSE 5 7 30.04 1017 10 16 0.00 0.00
9:53 pm 21:53 Partly Cloudy 51 10.6 27 -2.8 39 39 SE 3 6 30.03 1017 10 16 0.00 0.00
10:53 pm 22:53 Mostly Cloudy 52 11.1 27 -2.8 38 38 SSE 8 13 30.02 1017 10 16 0.00 0.00
11:53 pm 23:53 Mostly Cloudy 52 11.1 27 -2.8 38 38 SSE 12 19 30.01 1016 10 16 0.00 0.00

Powered by AerisWeather